Time,TemperatureF,DewpointF,PressureIn,WindDirection,WindDirectionDegrees,WindSpeedMPH,WindSpeedGustMPH,Humidity,HourlyPrecipIn,Conditions,Clouds,dailyrainin,SoftwareType,DateUTC
2013-02-21 00:01:00,24.0,10.0,30.28,East,95,2.0,5.0,55,-99.99,,,-99.99,,2013-02-21 06:01:00,
2013-02-21 00:11:00,24.0,10.0,30.27,East,95,1.0,5.0,56,-99.99,,,-99.99,,2013-02-21 06:11:00,
2013-02-21 00:21:00,24.0,10.0,30.27,East,95,1.0,5.0,56,-99.99,,,-99.99,,2013-02-21 06:21:00,
2013-02-21 00:31:00,23.0,10.0,30.26,ESE,110,0.0,6.0,56,-99.99,,,-99.99,,2013-02-21 06:31:00,
2013-02-21 00:41:00,23.0,10.0,30.26,SE,130,1.0,5.0,56,-99.99,,,-99.99,,2013-02-21 06:41:00,
2013-02-21 00:51:00,23.0,10.0,30.26,SE,130,1.0,5.0,56,-99.99,,,-99.99,,2013-02-21 06:51:00,
2013-02-21 01:01:00,23.0,10.0,30.26,East,100,1.0,5.0,57,-99.99,,,-99.99,,2013-02-21 07:01:00,
2013-02-21 01:11:00,24.0,11.0,30.28,East,90,1.0,4.0,57,-99.99,,,-99.99,,2013-02-21 07:11:00,
2013-02-21 01:21:00,24.0,11.0,30.28,East,90,1.0,4.0,57,-99.99,,,-99.99,,2013-02-21 07:21:00,
2013-02-21 01:32:00,24.0,11.0,30.27,East,85,3.0,5.0,57,-99.99,,,-99.99,,2013-02-21 07:32:00,
2013-02-21 01:42:00,24.0,11.0,30.26,East,95,4.0,9.0,58,-99.99,,,-99.99,,2013-02-21 07:42:00,
2013-02-21 01:52:00,24.0,11.0,30.26,East,95,4.0,9.0,58,-99.99,,,-99.99,,2013-02-21 07:52:00,
2013-02-21 02:01:00,24.0,11.0,30.26,East,95,1.0,5.0,58,-99.99,,,-99.99,,2013-02-21 08:01:00,
2013-02-21 02:11:00,24.0,11.0,30.26,East,95,2.0,6.0,58,-99.99,,,-99.99,,2013-02-21 08:11:00,
2013-02-21 02:20:00,24.0,11.0,30.24,East,95,3.0,7.0,58,-99.99,,,-99.99,,2013-02-21 08:20:00,
2013-02-21 02:21:00,24.0,11.0,30.26,East,95,2.0,6.0,58,-99.99,,,-99.99,,2013-02-21 08:21:00,
2013-02-21 02:32:00,24.0,11.0,30.26,East,95,1.0,3.0,59,-99.99,,,-99.99,,2013-02-21 08:32:00,
2013-02-21 02:42:00,24.0,11.0,30.25,East,95,3.0,6.0,58,-99.99,,,-99.99,,2013-02-21 08:42:00,
2013-02-21 02:52:00,24.0,11.0,30.25,East,95,3.0,6.0,58,-99.99,,,-99.99,,2013-02-21 08:52:00,
2013-02-21 03:01:00,24.0,11.0,30.24,East,95,3.0,7.0,58,-99.99,,,-99.99,,2013-02-21 09:01:00,
2013-02-21 03:11:00,24.0,11.0,30.24,East,95,3.0,7.0,58,-99.99,,,-99.99,,2013-02-21 09:11:00,
2013-02-21 06:32:00,25.0,14.0,30.20,SE,145,4.0,7.0,63,-99.99,,,-99.99,,2013-02-21 12:32:00,
2013-02-21 06:42:00,25.0,14.0,30.21,SSE,160,5.0,11.0,62,-99.99,,,-99.99,,2013-02-21 12:42:00,
2013-02-21 06:52:00,25.0,14.0,30.21,SSE,160,5.0,11.0,62,-99.99,,,-99.99,,2013-02-21 12:52:00,
2013-02-21 07:02:00,25.0,14.0,30.19,SSE,155,6.0,12.0,62,-99.99,,,-99.99,,2013-02-21 13:02:00,
2013-02-21 07:12:00,25.0,14.0,30.18,SE,130,5.0,13.0,61,-99.99,,,-99.99,,2013-02-21 13:12:00,
2013-02-21 07:22:00,25.0,14.0,30.18,SE,130,5.0,13.0,61,-99.99,,,-99.99,,2013-02-21 13:22:00,
2013-02-21 07:32:00,26.0,14.0,30.16,ESE,120,3.0,12.0,61,-99.99,,,-99.99,,2013-02-21 13:32:00,
2013-02-21 07:41:00,26.0,14.0,30.17,East,95,3.0,10.0,60,-99.99,,,-99.99,,2013-02-21 13:41:00,
2013-02-21 07:51:00,26.0,14.0,30.17,East,95,3.0,10.0,60,-99.99,,,-99.99,,2013-02-21 13:51:00,
2013-02-21 08:02:00,26.0,13.0,30.18,SE,140,8.0,13.0,59,-99.99,,,-99.99,,2013-02-21 14:02:00,
2013-02-21 08:11:00,26.0,14.0,30.18,East,95,3.0,12.0,59,-99.99,,,-99.99,,2013-02-21 14:11:00,
2013-02-21 08:21:00,26.0,14.0,30.18,East,95,3.0,12.0,59,-99.99,,,-99.99,,2013-02-21 14:21:00,
2013-02-21 08:32:00,26.0,14.0,30.20,East,95,3.0,13.0,59,-99.99,,,-99.99,,2013-02-21 14:32:00,
2013-02-21 08:42:00,26.0,14.0,30.18,East,95,6.0,12.0,59,-99.99,,,-99.99,,2013-02-21 14:42:00,
2013-02-21 08:52:00,26.0,14.0,30.18,East,95,6.0,12.0,59,-99.99,,,-99.99,,2013-02-21 14:52:00,
2013-02-21 09:01:00,26.0,14.0,30.17,East,95,4.0,11.0,59,-99.99,,,-99.99,,2013-02-21 15:01:00,
2013-02-21 09:12:00,26.0,14.0,30.18,SE,130,4.0,14.0,59,-99.99,,,-99.99,,2013-02-21 15:12:00,
2013-02-21 09:21:00,26.0,14.0,30.18,SE,130,4.0,14.0,59,-99.99,,,-99.99,,2013-02-21 15:21:00,
2013-02-21 09:32:00,27.0,14.0,30.18,SE,135,8.0,15.0,58,-99.99,,,-99.99,,2013-02-21 15:32:00,
2013-02-21 09:42:00,27.0,13.0,30.17,SSE,160,6.0,15.0,57,-99.99,,,-99.99,,2013-02-21 15:42:00,
2013-02-21 09:51:00,27.0,13.0,30.17,SSE,160,6.0,15.0,57,-99.99,,,-99.99,,2013-02-21 15:51:00,
2013-02-21 10:00:00,27.0,15.0,30.13,East,95,5.0,15.0,60,-99.99,,,-99.99,,2013-02-21 16:00:00,
2013-02-21 10:01:00,27.0,14.0,30.13,East,85,5.0,15.0,58,-99.99,,,-99.99,,2013-02-21 16:01:00,
2013-02-21 10:12:00,27.0,14.0,30.14,SE,130,4.0,19.0,58,-99.99,,,-99.99,,2013-02-21 16:12:00,
2013-02-21 10:22:00,27.0,14.0,30.14,SE,130,4.0,19.0,58,-99.99,,,-99.99,,2013-02-21 16:22:00,
2013-02-21 10:32:00,27.0,14.0,30.14,SSE,150,6.0,11.0,58,-99.99,,,-99.99,,2013-02-21 16:32:00,
2013-02-21 10:42:00,27.0,15.0,30.13,East,95,5.0,15.0,60,-99.99,,,-99.99,,2013-02-21 16:42:00,
2013-02-21 10:52:00,27.0,15.0,30.13,East,95,5.0,15.0,60,-99.99,,,-99.99,,2013-02-21 16:52:00,
2013-02-21 11:00:00,27.0,18.0,30.07,SE,145,3.0,14.0,68,-99.99,,,-99.99,,2013-02-21 17:00:00,
2013-02-21 11:11:00,26.0,17.0,30.05,East,90,6.0,18.0,68,-99.99,,,-99.99,,2013-02-21 17:11:00,
2013-02-21 11:21:00,26.0,17.0,30.05,East,90,6.0,18.0,68,-99.99,,,-99.99,,2013-02-21 17:21:00,
2013-02-21 11:32:00,26.0,17.0,30.10,ESE,105,3.0,11.0,67,-99.99,,,-99.99,,2013-02-21 17:32:00,
2013-02-21 11:42:00,27.0,18.0,30.07,SE,145,3.0,14.0,68,-99.99,,,-99.99,,2013-02-21 17:42:00,
2013-02-21 11:52:00,27.0,18.0,30.07,SE,145,3.0,14.0,68,-99.99,,,-99.99,,2013-02-21 17:52:00,
2013-02-21 12:11:00,26.0,19.0,30.04,SE,125,5.0,17.0,74,-99.99,,,-99.99,,2013-02-21 18:11:00,
2013-02-21 12:22:00,26.0,19.0,30.04,SE,125,5.0,17.0,74,-99.99,,,-99.99,,2013-02-21 18:22:00,
2013-02-21 12:32:00,26.0,20.0,30.02,ESE,115,6.0,15.0,76,-99.99,,,-99.99,,2013-02-21 18:32:00,
2013-02-21 12:42:00,26.0,20.0,30.04,ENE,65,4.0,15.0,76,-99.99,,,-99.99,,2013-02-21 18:42:00,
2013-02-21 12:51:00,26.0,20.0,30.04,ENE,65,4.0,15.0,76,-99.99,,,-99.99,,2013-02-21 18:51:00,
2013-02-21 13:01:00,26.0,20.0,30.09,NE,45,2.0,11.0,77,-99.99,,,-99.99,,2013-02-21 19:01:00,
2013-02-21 13:12:00,27.0,20.0,30.10,NE,40,3.0,6.0,77,-99.99,,,-99.99,,2013-02-21 19:12:00,
2013-02-21 13:21:00,27.0,20.0,30.10,NE,40,3.0,6.0,77,-99.99,,,-99.99,,2013-02-21 19:21:00,
2013-02-21 13:31:00,26.0,21.0,30.03,ENE,75,10.0,14.0,79,-99.99,,,-99.99,,2013-02-21 19:31:00,
2013-02-21 13:42:00,26.0,21.0,30.06,ENE,60,9.0,14.0,80,-99.99,,,-99.99,,2013-02-21 19:42:00,
2013-02-21 13:51:00,26.0,21.0,30.06,ENE,60,9.0,14.0,80,-99.99,,,-99.99,,2013-02-21 19:51:00,
2013-02-21 14:01:00,26.0,20.0,30.06,ENE,60,11.0,16.0,80,-99.99,,,-99.99,,2013-02-21 20:01:00,
2013-02-21 14:11:00,26.0,20.0,30.06,ENE,65,10.0,14.0,80,-99.99,,,-99.99,,2013-02-21 20:11:00,
2013-02-21 14:21:00,26.0,20.0,30.06,ENE,65,10.0,14.0,80,-99.99,,,-99.99,,2013-02-21 20:21:00,
2013-02-21 14:32:00,26.0,21.0,30.06,ENE,75,5.0,13.0,81,-99.99,,,-99.99,,2013-02-21 20:32:00,
2013-02-21 14:41:00,26.0,21.0,30.07,ENE,75,6.0,12.0,81,-99.99,,,-99.99,,2013-02-21 20:41:00,
2013-02-21 14:52:00,26.0,21.0,30.07,ENE,75,6.0,12.0,81,-99.99,,,-99.99,,2013-02-21 20:52:00,
2013-02-21 15:02:00,26.0,21.0,30.00,East,90,7.0,17.0,81,-99.99,,,-99.99,,2013-02-21 21:02:00,
2013-02-21 15:11:00,26.0,21.0,29.99,East,80,6.0,15.0,81,-99.99,,,-99.99,,2013-02-21 21:11:00,
2013-02-21 15:21:00,26.0,21.0,29.99,East,80,6.0,15.0,81,-99.99,,,-99.99,,2013-02-21 21:21:00,
2013-02-21 15:31:00,26.0,21.0,29.97,East,100,10.0,15.0,82,-99.99,,,-99.99,,2013-02-21 21:31:00,
2013-02-21 15:42:00,26.0,21.0,29.94,ENE,75,11.0,20.0,81,-99.99,,,-99.99,,2013-02-21 21:42:00,
2013-02-21 15:52:00,26.0,21.0,29.94,ENE,75,11.0,20.0,81,-99.99,,,-99.99,,2013-02-21 21:52:00,
2013-02-21 16:00:00,27.0,21.0,29.88,SE,145,8.0,24.0,78,-99.99,,,-99.99,,2013-02-21 22:00:00,
2013-02-21 16:01:00,26.0,21.0,29.91,East,95,9.0,19.0,81,-99.99,,,-99.99,,2013-02-21 22:01:00,
2013-02-21 16:11:00,27.0,21.0,29.89,ESE,115,5.0,18.0,80,-99.99,,,-99.99,,2013-02-21 22:11:00,
2013-02-21 16:21:00,27.0,21.0,29.89,ESE,115,5.0,18.0,80,-99.99,,,-99.99,,2013-02-21 22:21:00,
2013-02-21 16:32:00,27.0,22.0,29.87,East,100,8.0,23.0,79,-99.99,,,-99.99,,2013-02-21 22:32:00,
2013-02-21 16:42:00,27.0,21.0,29.88,SE,145,8.0,24.0,78,-99.99,,,-99.99,,2013-02-21 22:42:00,
2013-02-21 16:52:00,27.0,21.0,29.88,SE,145,8.0,24.0,78,-99.99,,,-99.99,,2013-02-21 22:52:00,
2013-02-21 17:11:00,28.0,22.0,29.85,SE,140,5.0,14.0,78,-99.99,,,-99.99,,2013-02-21 23:11:00,
2013-02-21 17:21:00,28.0,22.0,29.85,SE,140,5.0,14.0,78,-99.99,,,-99.99,,2013-02-21 23:21:00,
2013-02-21 17:32:00,29.0,23.0,29.85,SE,130,9.0,19.0,78,-99.99,,,-99.99,,2013-02-21 23:32:00,
2013-02-21 17:41:00,29.0,23.0,29.85,SE,130,9.0,20.0,78,-99.99,,,-99.99,,2013-02-21 23:41:00,
2013-02-21 17:52:00,29.0,23.0,29.83,SE,140,7.0,18.0,78,-99.99,,,-99.99,,2013-02-21 23:52:00,
2013-02-21 18:01:00,29.0,23.0,29.83,SE,140,7.0,18.0,78,-99.99,,,-99.99,,2013-02-22 00:01:00,
2013-02-21 18:11:00,29.0,23.0,29.84,SSE,150,6.0,12.0,79,-99.99,,,-99.99,,2013-02-22 00:11:00,
2013-02-21 18:21:00,29.0,23.0,29.84,SSE,150,6.0,12.0,79,-99.99,,,-99.99,,2013-02-22 00:21:00,
2013-02-21 18:32:00,30.0,24.0,29.84,SE,145,8.0,15.0,80,-99.99,,,-99.99,,2013-02-22 00:32:00,
2013-02-21 18:42:00,30.0,25.0,29.84,SSE,150,6.0,15.0,80,-99.99,,,-99.99,,2013-02-22 00:42:00,
2013-02-21 18:51:00,30.0,25.0,29.84,SSE,150,6.0,15.0,80,-99.99,,,-99.99,,2013-02-22 00:51:00,
2013-02-21 19:01:00,30.0,25.0,29.83,SSE,155,10.0,19.0,80,-99.99,,,-99.99,,2013-02-22 01:01:00,
2013-02-21 19:11:00,31.0,25.0,29.85,SE,135,6.0,15.0,80,-99.99,,,-99.99,,2013-02-22 01:11:00,
2013-02-21 19:21:00,31.0,25.0,29.85,SE,135,6.0,15.0,80,-99.99,,,-99.99,,2013-02-22 01:21:00,
2013-02-21 19:32:00,31.0,25.0,29.83,SSE,150,5.0,19.0,80,-99.99,,,-99.99,,2013-02-22 01:32:00,
2013-02-21 19:42:00,31.0,26.0,29.82,SE,135,5.0,14.0,80,-99.99,,,-99.99,,2013-02-22 01:42:00,
2013-02-21 19:50:00,31.0,26.0,29.81,SSE,160,9.0,17.0,80,-99.99,,,-99.99,,2013-02-22 01:50:00,
2013-02-21 19:51:00,31.0,26.0,29.82,SE,135,5.0,14.0,80,-99.99,,,-99.99,,2013-02-22 01:51:00,
2013-02-21 20:02:00,31.0,26.0,29.82,SE,145,4.0,16.0,80,-99.99,,,-99.99,,2013-02-22 02:02:00,
2013-02-21 20:11:00,31.0,26.0,29.83,SE,145,8.0,20.0,80,-99.99,,,-99.99,,2013-02-22 02:11:00,
2013-02-21 20:21:00,31.0,26.0,29.83,SE,145,8.0,20.0,80,-99.99,,,-99.99,,2013-02-22 02:21:00,
2013-02-21 20:32:00,31.0,26.0,29.81,SSE,160,9.0,17.0,80,-99.99,,,-99.99,,2013-02-22 02:32:00,
2013-02-21 20:42:00,31.0,26.0,29.81,SSE,160,9.0,17.0,80,-99.99,,,-99.99,,2013-02-22 02:42:00,
2013-02-21 21:01:00,31.0,26.0,29.80,SE,145,2.0,13.0,80,-99.99,,,-99.99,,2013-02-22 03:01:00,
2013-02-21 21:11:00,31.0,26.0,29.82,SSE,165,7.0,13.0,80,-99.99,,,-99.99,,2013-02-22 03:11:00,
2013-02-21 21:21:00,31.0,26.0,29.82,SSE,165,7.0,13.0,80,-99.99,,,-99.99,,2013-02-22 03:21:00,
2013-02-21 21:32:00,31.0,26.0,29.81,SE,145,4.0,10.0,81,-99.99,,,-99.99,,2013-02-22 03:32:00,
2013-02-21 21:42:00,32.0,27.0,29.81,SE,140,3.0,9.0,82,-99.99,,,-99.99,,2013-02-22 03:42:00,
2013-02-21 21:51:00,32.0,27.0,29.81,SE,140,3.0,9.0,82,-99.99,,,-99.99,,2013-02-22 03:51:00,
2013-02-21 22:02:00,32.0,27.0,29.81,SSW,200,2.0,9.0,83,-99.99,,,-99.99,,2013-02-22 04:02:00,
2013-02-21 22:11:00,32.0,27.0,29.81,SSE,150,3.0,9.0,84,-99.99,,,-99.99,,2013-02-22 04:11:00,
2013-02-21 22:21:00,32.0,27.0,29.81,SSE,150,3.0,9.0,84,-99.99,,,-99.99,,2013-02-22 04:21:00,
2013-02-21 22:32:00,32.0,28.0,29.81,SSE,160,3.0,8.0,84,-99.99,,,-99.99,,2013-02-22 04:32:00,
2013-02-21 22:42:00,32.0,28.0,29.81,SSE,155,4.0,9.0,84,-99.99,,,-99.99,,2013-02-22 04:42:00,
2013-02-21 22:51:00,32.0,28.0,29.81,SSE,155,4.0,9.0,84,-99.99,,,-99.99,,2013-02-22 04:51:00,
2013-02-21 23:02:00,32.0,28.0,29.79,SSE,150,3.0,7.0,85,-99.99,,,-99.99,,2013-02-22 05:02:00,
2013-02-21 23:12:00,32.0,28.0,29.79,SSE,165,3.0,6.0,85,-99.99,,,-99.99,,2013-02-22 05:12:00,
2013-02-21 23:22:00,32.0,28.0,29.79,SSE,165,3.0,6.0,85,-99.99,,,-99.99,,2013-02-22 05:22:00,
2013-02-21 23:32:00,32.0,28.0,29.79,SW,220,1.0,5.0,85,-99.99,,,-99.99,,2013-02-22 05:32:00,
2013-02-21 23:42:00,32.0,28.0,29.79,South,175,1.0,6.0,85,-99.99,,,-99.99,,2013-02-22 05:42:00,
2013-02-21 23:52:00,32.0,28.0,29.79,South,175,1.0,6.0,85,-99.99,,,-99.99,,2013-02-22 05:52:00,